HASTNG-WX Weather Reports


time (UTC)temp
C
wind
direction
speed
KPH
gust
KPH
rain 1hr
cm
rain 24hr
cm
rain mn
cm
humidity
%
barometer
mb
20260505124531 10 310 16.1 0.0 0.00 0.00 0.00 68 976.0
20260505123051 10 287 17.7 0.0 0.00 0.00 0.00 70 974.6
20260505121531 10 295 17.7 0.0 0.00 0.00 0.00 70 974.6
20260505120111 10 284 17.7 0.0 0.00 0.00 0.00 70 974.6
20260505114532 10 279 14.5 0.0 0.00 0.00 0.00 67 974.6
20260505113049 10 270 12.9 0.0 0.00 0.00 0.00 63 973.3
20260505111531 10 264 12.9 0.0 0.00 0.00 0.00 63 973.3
20260505110105 10 258 12.9 0.0 0.00 0.00 0.00 63 973.3
20260505101531 10 259 16.1 0.0 0.00 0.00 0.00 57 971.9
20260505100104 10 262 16.1 0.0 0.00 0.00 0.00 57 971.9
20260505094531 11 262 12.9 0.0 0.00 0.00 0.00 68 972.0
20260505093054 11 265 11.3 0.0 0.00 0.00 0.00 71 971.8
20260505091531 11 250 17.7 0.0 0.00 0.00 0.00 71 971.8
20260505090107 11 253 11.3 0.0 0.00 0.00 0.00 71 971.8
20260505084529 11 270 14.5 0.0 0.00 0.00 0.00 74 972.1
20260505083050 11 265 14.5 0.0 0.00 0.00 0.00 80 971.4
20260505081531 12 259 16.1 0.0 0.00 0.00 0.00 80 971.4
20260505080100 12 255 19.3 0.0 0.00 0.00 0.00 73 971.7
20260505074531 12 247 17.7 0.0 0.00 0.00 0.00 75 971.0
20260505073052 12 242 16.1 0.0 0.00 0.00 0.00 75 971.0
20260505071531 13 230 17.7 0.0 0.00 0.00 0.00 75 971.0
20260505064531 13 250 16.1 0.0 0.00 0.00 0.00 77 971.8
20260505063048 13 241 17.7 0.0 0.00 0.00 0.00 76 971.0
20260505061532 14 239 17.7 0.0 0.00 0.00 0.00 76 971.0
20260505060108 14 239 16.1 0.0 0.00 0.00 0.00 76 971.0
20260505054532 15 245 19.3 0.0 0.00 0.00 0.00 73 972.0
20260505053055 15 221 20.9 0.0 0.00 0.00 0.00 61 971.0
20260505051531 16 224 20.9 0.0 0.00 0.00 0.00 61 971.1
20260505041531 16 205 24.1 0.0 0.00 0.00 0.00 64 971.0
20260505040104 16 203 24.1 0.0 0.00 0.00 0.00 64 971.0
20260505034528 17 205 24.1 0.0 0.00 0.00 0.00 61 970.7
20260505033051 16 196 25.7 0.0 0.00 0.00 0.00 58 970.5
20260505031531 16 210 24.1 0.0 0.00 0.00 0.00 58 970.5
20260505024531 17 202 25.7 0.0 0.00 0.00 0.00 54 971.1
20260505023052 17 216 30.6 0.0 0.00 0.00 0.00 56 971.2
20260505021531 18 215 29.0 0.0 0.00 0.00 0.00 56 971.1
20260505014531 17 213 24.1 0.0 0.00 0.00 0.00 57 970.2
20260505013049 18 212 25.7 0.0 0.00 0.00 0.00 57 970.2
20260505011531 17 215 24.1 0.0 0.00 0.00 0.00 57 970.2
20260505010057 18 208 24.1 0.0 0.00 0.00 0.00 57 970.2
20260505004531 18 205 17.7 0.0 0.00 0.00 0.00 37 970.7
20260505003048 19 208 14.5 0.0 0.00 0.00 0.00 41 971.5
20260505001530 20 208 11.3 0.0 0.00 0.00 0.00 41 971.5
20260504234530 21 233 12.9 0.0 0.00 0.00 0.00 31 971.2
20260504233049 21 248 16.1 0.0 0.00 0.00 0.00 31 971.2
20260504231530 21 255 19.3 0.0 0.00 0.00 0.00 31 971.2
20260504230056 22 257 20.9 0.0 0.00 0.00 0.00 31 971.2
20260504224531 22 257 25.7 0.0 0.00 0.00 0.00 36 970.7
20260504223051 22 253 27.4 0.0 0.00 0.00 0.00 36 971.1
20260504221530 22 250 29.0 0.0 0.00 0.00 0.00 36 971.1
20260504220104 22 249 27.4 0.0 0.00 0.00 0.00 36 971.1
20260504214529 22 251 27.4 0.0 0.00 0.00 0.00 35 972.2
20260504213051 22 253 29.0 0.0 0.00 0.00 0.00 35 972.2
20260504211529 22 252 30.6 0.0 0.00 0.00 0.00 34 971.2
20260504210101 22 245 32.2 0.0 0.00 0.00 0.00 34 971.2
20260504204535 23 242 30.6 0.0 0.00 0.00 0.00 36 971.9
20260504203045 23 237 27.4 0.0 0.00 0.00 0.00 36 971.9
20260504201536 23 233 30.6 0.0 0.00 0.00 0.00 36 971.9
20260504200058 23 228 30.6 0.0 0.00 0.00 0.00 38 971.2
20260504194536 23 227 30.6 0.0 0.00 0.00 0.00 38 972.3
20260504193055 23 224 30.6 0.0 0.00 0.00 0.00 38 972.3
20260504191536 22 225 30.6 0.0 0.00 0.00 0.00 38 972.3
20260504184532 22 229 29.0 0.0 0.00 0.00 0.00 30 973.2
20260504183056 22 229 29.0 0.0 0.00 0.00 0.00 32 972.9
20260504181536 22 230 27.4 0.0 0.00 0.00 0.00 32 972.9
20260504180107 22 232 27.4 0.0 0.00 0.00 0.00 32 972.9
20260504174535 22 233 29.0 0.0 0.00 0.00 0.00 31 973.8
20260504173051 22 231 29.0 0.0 0.00 0.00 0.00 35 973.6
20260504171535 21 229 29.0 0.0 0.00 0.00 0.00 35 973.6
20260504160104 20 222 25.7 0.0 0.00 0.00 0.00 36 974.0
20260504150106 17 223 22.5 0.0 0.00 0.00 0.00 53 974.4
20260504140109 15 224 19.3 0.0 0.00 0.00 0.00 60 974.4